UFO 11 (USA 174)

Last updated on Sun Jun 21 2026 00:03:03 GMT+0000 (Coordinated Universal Time)

1 28117U 03057A 26171.12186348 -.00000114 00000+0 00000+0 0 9999 2 28117 8.9416 33.8126 0002415 64.0509 289.9601 1.00271747 82473
UTC large
Height (km)
Speed (km/s)
/
Latitude / Longitude
Inclination (degrees)
Orbital Period (minutes)
Azimuth
Elevation
Range (km)
Doppler Factor

Next 0 passes for location: London (51.5072 / 0.1276)

No passes found over London.
UFO 11 (USA 174)